Location: Carrigahorig
(53.0625°N, 8.1439°W)
Time: 23:21:49
(UTC+00:00)

Cosmos 2297 Rocket - Pass Details

Date: 15 May 2026
Orbit: 838 x 842 km, 71.0° (Epoch: 11 June)

Event Time Altitude Azimuth Distance (km) Brightness Sun altitude
Exits shadow 23:28:02 23° 136° (SE) 1,724 3.3 -16.7°
Maximum altitude 23:29:56 28° 105° (ESE) 1,542 3.3 -16.8°
Drops below altitude 10° 23:34:37 10° 48° (NE) 2,465 5.0 -16.9°
Sets 23:37:22 0° 37° (NE) 3,405 6.0 -17.0°
